Location: Unnamed
(51.4737°N, 0.0038°W)
Time: 06:43:25
(UTC+00:00)

ACS3 Solar Sail - Visible Passes

Search period start: 20 January 2026 00:00
Search period end: 30 January 2026 00:00
Orbit: 898 x 978 km, 97.2° (Epoch: 19 January)

Date Brightness Start Highest point End Pass type
(mag) Time Alt. Az. Time Alt. Az. Time Alt. Az.
20 Jan 4.2 04:01:46 10° N 04:01:47 10° N 04:01:47 10° N visible
24 Jan 4.3 03:14:02 10° N 03:14:09 11° N 03:14:09 11° N visible
25 Jan 4.2 03:28:01 10° N 03:28:13 11° N 03:28:13 11° N visible
26 Jan 4.2 03:42:01 10° N 03:42:17 11° N 03:42:17 11° N visible
27 Jan 4.1 03:56:03 10° N 03:56:20 11° N 03:56:20 11° N visible
28 Jan 4.1 04:10:08 10° N 04:10:24 11° N 04:10:24 11° N visible
29 Jan 4.4 02:40:29 10° NNE 02:40:37 11° NNE 02:40:37 11° NNE visible
29 Jan 4.0 04:24:19 10° N 04:24:28 11° NNW 04:24:28 11° NNW visible
